User: anonymous   Login
Location: Unspecified
(0.0000°N, 0.0000°E)
Time: 04:04:28
(UTC+02:00)
Language:

Iridium 75 - Orbit

View from above orbital plane
View from above orbital plane
View from above satellite
View from above satellite

Ground track
Ground track

The orbit data is extracted from the following two-line orbital elements,

1 25346U 98032E   15210.47270723  .00000211  00000-0  68400-4 0  9999
2 25346 086.4008 152.0082 0002347 084.4082 052.4654 14.34219589900953
Epoch (UTC): 29 July 2015 11:20:41
Eccentricity: 0.0002347
inclination: 86.4008°
perigee height: 776 km
apogee height: 779 km
right ascension of ascending node: 152.0082°
argument of perigee: 84.4082°
revolutions per day: 14.34219589
mean anomaly at epoch: 52.4654°
orbit number at epoch: 90095

The dashed part of the orbit path shows where the satellite is in the earth's shadow,  

DLR